Tracking 33845 objects as of 17-Apr-2026
HD Live streaming from Space Station
objects crossing your sky now

SITRO-AIS-55

Track SITRO-AIS-55 now!
10-day predictions
SITRO-AIS-55 is classified as:


NORAD ID: 59809
Int'l Code: 2024-092K
Perigee: 464.6 km
Apogee: 474.5 km
Inclination: 97.6 °
Period: 93.8 minutes
Semi major axis: 6840 km
RCS: Unknown
Launch date: May 16, 2024
Source: Commonwealth of Independent States (former USSR) (CIS)
Launch site: PLESETSK MISSILE AND SPACE COMPLEX (PKMTR)

Uplink (MHz):
Downlink (MHz): 401.108
Beacon (MHz):
Mode: 2k4 GMSK_USP
Call sign: SC2343
Status: Active

Your satellite tracking list
Your tracking list is empty




NASA's NSSDC Master Catalog

Two Line Element Set (TLE):
1 59809U 24092K   26107.29834806  .00011064  00000-0  33327-3 0  9997
2 59809  97.6482 237.7945 0007277  14.0112 346.1331 15.34493967105893
Source of the keplerian elements: AFSPC